Back to catalog

STARLINK-35653

AliveCommunicationsVLEO
NORAD 66122·PAYLOAD·🇺🇸 United States

Launched Oct 22, 2025 from Vandenberg Space Force Base

Loading…

Next Passes (next 24 hours)

TLE

FreshSource: CelesTrak SupGP

Epoch: Sep 14, 2026, 15:50 UTC

1 66122C 25237J   26257.66020833 -.00017404  00000+0 -51433-3 0  2579
2 66122  53.1570 240.9884 0001291  93.9976 324.3223 15.34390814    19

Track STARLINK-35653 in real time with AllMySat

Download on the App Store